Theta_e
293 293 293 292 292 292 292 292 292 292 293 293 293 294 294 295 295 296 296 296 297 296 295 295 296 297 297 296 297 296 297 296 298 301 300 294 298 298 300 300 300 301 299 295 295 302 302 301 301 302 302 302 302 302
292 292 292 292 292 292 292 292 292 292 292 292 292 293 293 293 294 295 295 295 295 296 294 297 297 297 296 296 297 297 298 298 300 302 302 301 302 301 302 304 300 302 301 301 302 298 300 302 302 302 302 303 303 303
292 292 292 292 292 292 292 292 292 292 292 292 292 292 292 293 293 294 294 294 295 295 295 294 295 295 296 296 296 298 298 298 299 299 300 301 302 298 302 301 300 301 302 302 302 302 302 302 303 303 304 304 305 306
292 292 292 292 292 292 292 292 292 292 292 292 292 292 292 292 292 293 293 294 294 296 297 295 295 295 296 296 296 297 297 298 299 300 300 302 302 301 300 300 300 300 303 303 303 303 302 301 302 304 305 304 305 305
290 290 290 290 291 291 291 292 292 292 292 292 292 292 292 292 292 292 292 292 293 294 292 291 294 295 295 295 296 297 297 298 299 300 299 301 300 301 302 301 303 302 302 302 302 301 302 302 302 303 305 306 306 306
290 290 289 289 290 290 290 290 290 291 291 291 292 292 293 293 293 291 292 294 293 293 295 298 294 295 297 297 297 298 297 298 299 299 301 302 301 301 303 303 301 301 301 300 301 301 301 301 301 303 305 306 307 308
289 289 289 289 289 289 289 289 290 290 290 290 291 292 293 293 293 292 290 295 296 295 297 295 292 292 299 298 295 296 300 300 300 299 300 302 302 302 303 303 301 301 301 300 300 301 301 301 304 304 305 307 306 306
289 289 289 289 289 289 289 289 289 290 290 289 290 291 292 293 293 293 292 291 292 293 293 296 295 292 297 297 300 299 299 297 298 300 300 301 300 300 302 301 300 300 300 301 301 301 302 302 305 306 306 307 307 307
288 288 288 288 288 289 289 289 289 290 290 290 290 291 292 293 292 292 292 293 292 292 296 298 294 290 296 299 299 297 298 300 298 300 301 301 298 301 301 301 301 302 301 302 303 304 305 305 305 305 307 309 308 308
288 288 288 288 288 289 289 289 289 290 290 290 290 293 295 295 296 296 297 299 296 295 296 298 293 294 296 291 294 299 299 301 301 300 299 301 300 301 301 301 301 301 302 304 304 304 305 305 305 306 307 307 307 307
288 287 288 288 289 288 289 289 289 290 289 292 295 296 293 293 294 296 292 298 295 299 297 297 295 297 294 294 294 299 301 301 303 299 301 304 302 303 300 299 298 298 299 300 301 302 301 302 303 304 305 304 304 306
287 288 288 288 288 289 289 289 290 290 289 290 291 291 291 291 292 296 296 297 298 298 296 296 296 293 294 296 299 294 300 300 301 302 304 303 300 300 299 299 299 298 298 298 298 298 297 298 298 298 299 299 297 297
288 288 288 288 288 289 289 290 290 291 290 290 290 290 293 292 294 296 295 299 295 296 297 298 298 298 296 296 297 298 301 300 301 303 302 303 302 299 299 299 299 295 294 295 296 295 295 295 294 295 295 294 295 295
287 288 288 288 289 289 290 290 290 289 290 290 293 291 295 293 296 297 297 296 295 296 297 298 297 298 295 299 297 301 298 299 296 298 302 302 300 300 299 298 297 296 294 295 294 293 293 293 293 293 293 293 294 294
287 288 288 289 289 289 290 290 288 290 290 292 292 293 294 295 295 295 294 295 295 296 297 298 297 296 295 296 299 299 299 299 301 297 303 300 300 299 297 297 296 293 292 293 293 293 292 292 292 292 291 292 293 293
288 288 288 289 289 289 289 289 289 289 291 290 291 291 292 293 293 293 293 295 296 295 296 296 298 296 298 299 300 297 300 300 297 296 294 297 297 296 296 296 295 294 293 293 292 292 291 291 291 291 291 291 292 293
288 288 287 289 289 289 288 289 289 289 290 291 289 286 290 291 289 291 293 296 296 295 297 296 297 298 297 298 299 298 297 295 293 291 291 296 296 296 294 294 294 293 293 293 292 292 291 291 291 291 292 291 291 292
288 288 287 288 288 288 287 288 289 290 290 290 289 288 289 290 289 291 292 294 296 296 297 298 296 298 296 299 298 296 294 289 289 290 291 294 297 295 294 294 295 294 292 291 291 291 291 291 291 291 291 291 291 291
287 287 287 288 287 287 286 289 289 290 289 288 289 289 290 290 290 291 291 292 294 296 295 295 298 300 298 294 294 290 289 292 291 291 291 295 297 295 295 294 293 292 292 292 293 292 291 290 291 290 291 291 291 291
287 287 287 287 287 287 287 288 290 290 291 290 289 289 290 290 290 290 291 291 294 296 297 299 297 296 293 294 293 295 294 293 292 291 291 292 294 295 294 293 293 292 292 291 291 291 290 289 291 291 291 291 291 290
287 287 287 287 287 287 288 288 287 288 287 289 290 291 291 289 290 290 290 291 290 293 296 296 294 293 293 293 295 296 294 293 293 292 293 294 292 294 293 293 292 291 291 291 291 290 290 290 290 290 290 290 290 290
286 286 286 286 287 287 286 286 287 285 286 286 287 287 287 282 285 287 289 292 293 293 293 295 295 295 294 296 297 297 295 294 293 290 290 291 294 294 293 292 291 289 288 288 290 290 289 290 290 290 290 290 290 289
286 286 286 287 287 285 282 287 288 288 288 289 288 289 288 287 287 288 287 289 290 291 290 291 294 296 296 296 298 297 296 295 293 292 292 292 292 293 292 292 292 291 290 290 290 289 288 289 289 290 290 289 289 289
286 286 285 286 286 279 285 285 287 288 288 288 288 287 288 287 287 286 287 289 288 289 288 287 290 295 294 295 295 296 296 295 293 292 293 293 293 293 292 292 292 291 291 290 290 289 288 288 288 289 289 289 290 289
284 287 287 285 285 282 281 281 283 287 281 286 286 284 284 288 286 286 288 285 284 285 286 286 286 291 295 291 292 295 296 294 294 293 291 293 292 291 290 291 291 291 290 290 289 289 288 288 288 288 288 288 288 288
283 279 286 288 287 286 284 280 277 279 285 283 286 288 289 285 286 289 286 284 284 285 285 285 286 285 292 292 293 296 295 295 294 294 291 292 291 290 290 291 291 290 290 290 290 289 288 288 288 288 288 288 288 288
277 282 288 288 288 288 284 285 289 287 287 286 288 288 287 287 286 285 283 284 284 285 285 285 285 291 293 292 292 293 294 294 294 292 292 292 292 291 291 291 291 291 291 290 289 289 288 288 288 288 288 288 288 288
286 285 282 281 282 285 281 283 284 286 283 285 284 281 282 282 281 282 284 284 282 282 283 283 283 283 283 285 289 289 289 288 288 288 288 288 289 291 291 290 291 291 291 290 289 289 288 288 289 288 288 288 288 288
285 279 282 280 278 281 286 286 283 283 284 279 275 279 281 281 279 280 281 281 281 280 280 280 281 282 282 281 281 281 286 289 291 289 286 286 285 285 287 289 289 289 290 290 290 290 290 289 289 289 289 289 288 288
281 282 281 277 278 284 283 280 279 276 279 279 279 280 279 278 278 278 278 278 279 279 278 278 278 279 279 280 280 280 279 282 288 288 286 284 282 284 285 286 286 286 286 287 287 287 287 288 289 289 290 290 289 289
282 282 280 281 282 283 278 275 274 274 272 272 273 274 276 276 275 278 277 277 277 277 277 277 276 276 277 277 277 278 278 278 280 282 282 282 282 282 282 283 284 284 284 285 285 286 287 287 288 288 288 288 288 288
279 277 273 277 279 280 276 274 281 279 279 275 275 270 273 274 274 273 277 277 277 277 277 277 276 276 276 275 276 276 277 278 279 280 281 281 281 281 281 281 281 282 282 282 283 284 284 286 288 288 288 288 289 288
280 272 269 270 274 277 277 276 283 282 277 278 280 275 272 270 276 276 277 276 276 276 276 277 277 277 277 276 276 276 276 276 277 278 279 279 280 280 281 281 282 283 283 282 282 282 283 284 285 285 284 283 283 283
Wind_Speed
14 14 14 13 12 12 12 12 12 13 13 13 13 13 13 13 12 10 9 8 9 3 9 11 13 12 8 5 9 4 8 5 1 6 4 4 4 6 6 12 8 9 5 4 3 9 16 5 11 13 13 15 16 16
13 14 15 15 15 14 13 13 13 13 13 13 14 14 14 15 14 12 11 12 14 5 7 21 25 32 28 29 11 7 9 9 2 3 3 3 3 2 3 4 6 8 10 4 9 7 6 1 4 11 10 15 19 14
11 12 13 15 16 16 16 16 16 15 15 14 14 14 14 14 15 15 18 16 11 3 9 12 16 32 31 38 35 9 9 9 8 9 6 5 9 3 7 8 13 6 6 8 11 19 19 17 11 17 9 8 11 17
10 12 13 14 15 16 17 17 18 18 18 18 17 16 15 15 15 16 19 16 15 3 4 9 19 18 19 22 32 35 27 20 10 5 6 5 6 5 5 7 10 8 6 12 17 18 15 23 19 14 12 16 21 20
11 12 13 15 15 15 16 18 18 18 18 19 18 18 17 16 16 18 21 24 24 9 3 6 18 34 35 34 31 26 21 16 10 6 5 8 3 4 5 5 12 11 19 12 16 20 12 15 17 19 17 15 18 19
12 13 13 13 14 15 17 18 19 19 19 19 19 17 17 16 13 10 4 9 28 32 4 3 4 9 19 19 15 14 13 11 7 3 4 4 5 4 4 8 14 15 20 22 20 18 19 21 23 22 19 19 14 15
13 14 14 15 15 16 16 16 17 18 20 20 20 19 18 16 14 7 6 7 7 15 3 4 5 4 3 1 2 2 2 2 4 2 3 4 5 5 3 13 22 9 10 12 12 12 13 17 14 14 13 9 11 16
13 14 15 15 16 16 16 16 18 18 18 20 20 20 20 19 20 21 36 37 28 4 2 4 5 4 4 1 2 1 2 1 3 3 2 2 2 3 6 11 6 12 15 16 16 13 15 14 9 12 11 8 13 13
14 14 15 15 16 16 17 17 17 18 18 19 20 21 26 12 7 11 21 21 27 11 4 4 3 4 0 2 1 1 3 3 3 3 3 3 2 6 9 8 10 11 7 8 7 6 5 6 10 12 9 8 10 8
15 17 16 15 15 16 17 17 17 17 18 19 15 4 3 7 6 11 5 3 4 5 4 4 3 4 3 1 2 3 3 2 3 4 3 4 4 10 6 7 7 7 8 8 5 5 5 6 7 8 5 10 7 9
16 17 15 16 15 15 14 15 15 16 14 2 1 2 9 10 3 2 3 3 3 3 3 3 8 9 2 2 3 3 2 2 3 3 5 3 3 1 6 6 6 6 7 7 5 5 6 7 10 11 5 3 4 4
15 15 16 16 16 15 14 14 12 10 7 8 11 12 6 2 1 3 4 3 5 5 3 5 6 5 3 3 2 2 3 2 6 2 3 3 2 4 8 8 6 7 8 9 7 7 8 7 6 5 5 4 3 7
15 15 15 15 15 15 14 14 12 14 11 8 3 3 3 3 4 7 6 4 3 4 4 4 3 4 1 2 2 1 4 4 2 2 3 2 1 4 5 5 4 8 9 7 6 5 4 5 8 6 6 6 7 10
14 13 14 14 15 14 15 13 9 4 5 3 4 5 6 5 6 6 4 3 5 2 4 3 2 2 3 3 2 3 4 3 3 2 2 2 4 3 2 4 5 7 8 7 6 6 6 6 7 7 8 9 7 11
12 13 13 16 17 13 13 8 3 6 4 4 4 5 7 6 4 4 5 2 4 1 1 1 2 2 2 2 3 2 3 4 4 3 2 4 4 1 1 1 2 4 5 6 6 6 6 6 7 8 11 12 12 16
10 13 10 5 4 5 3 5 5 4 3 3 5 4 4 1 4 2 1 2 2 1 2 1 2 1 4 3 4 6 3 4 3 3 2 3 2 1 0 0 2 2 3 5 6 7 7 7 7 8 14 14 14 13
11 6 6 9 7 6 7 3 4 4 4 5 4 2 5 6 4 4 3 3 1 2 2 1 4 9 1 3 4 5 4 4 3 2 1 4 4 2 2 2 2 2 3 4 4 5 6 10 12 9 10 9 13 14
15 16 12 5 3 6 4 8 4 4 7 5 3 4 3 3 2 4 3 3 2 2 2 4 3 4 4 5 3 3 2 2 2 3 2 2 4 5 4 4 3 3 3 3 3 3 6 6 7 5 7 10 12 13
15 15 16 12 6 2 2 4 6 4 6 3 3 3 3 3 3 4 3 6 6 6 2 2 6 3 7 3 3 2 2 3 4 3 3 3 5 5 5 3 3 3 3 3 2 3 4 7 5 7 7 8 4 8
15 16 14 12 10 5 4 4 6 4 3 3 1 3 3 2 3 3 3 3 4 3 5 5 5 4 3 3 4 4 4 4 5 2 1 1 2 6 6 6 3 4 3 6 7 10 7 5 6 8 9 9 6 5
12 14 14 14 7 10 3 3 4 3 3 3 2 1 2 2 3 5 3 3 1 3 6 4 3 4 6 4 4 3 4 7 6 4 4 4 3 4 4 5 8 6 3 3 4 3 5 2 5 8 9 9 11 13
14 13 7 10 4 4 5 5 3 3 5 7 8 8 7 3 5 4 3 3 3 5 6 5 7 8 6 6 5 7 8 7 4 4 5 6 5 4 3 4 4 3 3 3 3 4 4 9 9 10 11 12 14 15
12 7 5 8 5 4 6 6 5 6 5 3 2 3 3 2 3 2 3 3 3 3 5 7 11 14 11 11 6 5 12 11 6 5 5 5 4 7 6 7 9 4 3 3 10 10 9 10 10 11 13 13 13 13
12 5 5 4 7 5 3 3 3 4 4 4 4 7 8 6 2 1 4 3 2 3 5 9 10 9 3 4 4 5 6 11 6 5 10 6 5 4 9 8 10 10 11 12 11 11 11 11 12 11 11 11 10 10
1 4 5 6 5 3 3 3 3 2 5 8 9 5 4 2 2 3 6 3 6 6 7 8 8 8 8 4 1 4 16 16 8 8 5 13 6 8 6 10 8 9 10 12 7 9 9 12 12 12 10 10 9 10
5 5 6 5 3 4 5 3 3 5 2 2 4 3 1 3 2 2 3 5 5 6 8 8 8 9 4 3 5 6 6 17 17 7 6 17 16 9 6 5 4 2 12 14 14 10 10 11 11 11 10 9 9 9
4 4 2 1 2 2 2 2 2 1 2 2 2 3 4 3 2 2 3 3 5 8 14 15 12 6 3 3 7 14 19 22 20 13 18 18 19 22 21 8 6 11 13 13 13 13 13 11 11 11 10 10 10 11
2 1 1 3 2 1 2 1 1 1 1 3 2 3 2 3 2 3 3 12 16 18 17 19 19 14 15 12 11 16 20 26 29 28 27 21 17 18 18 17 15 16 15 13 13 14 15 15 14 13 12 12 12 10
2 3 1 2 2 2 1 0 1 1 1 2 3 2 2 2 4 3 4 16 18 17 7 9 14 21 23 21 23 24 13 13 15 16 15 7 5 7 20 22 20 17 15 13 11 11 11 12 13 13 14 14 15 15
3 1 2 2 1 1 1 2 2 2 0 3 3 3 3 2 9 16 17 18 12 7 12 15 17 17 9 8 8 18 26 21 8 9 11 9 6 18 20 19 16 14 12 10 9 7 6 7 7 7 9 10 13 14
3 2 2 1 1 0 3 2 2 3 3 2 2 3 3 3 2 19 19 18 16 17 15 11 14 19 15 9 9 8 9 25 26 25 25 24 22 20 17 14 11 10 9 9 8 7 8 8 9 9 9 8 8 6
2 2 2 1 2 3 3 2 1 2 1 3 2 2 3 3 2 3 17 18 13 7 13 13 9 11 17 18 20 22 21 22 24 23 21 20 18 15 13 10 8 7 8 8 8 8 8 7 6 7 7 7 10 9
2 3 3 3 4 4 3 2 1 2 3 2 2 1 1 3 2 0 9 15 14 13 13 14 16 16 16 19 21 21 20 19 17 15 12 12 11 9 8 7 6 5 8 9 9 9 9 7 6 12 18 18 20 18
Wind_Direction
266 268 271 276 281 281 282 280 281 284 286 288 289 288 288 286 280 274 264 239 207 246 266 247 245 246 261 230 255 282 314 252 196 225 213 226 227 221 225 233 243 230 190 194 204 222 257 203 248 208 228 255 264 271
267 269 271 273 276 279 282 283 282 282 282 281 279 279 281 283 280 272 268 251 249 230 254 289 264 251 233 243 255 245 251 277 285 298 226 243 248 237 233 244 242 246 211 214 200 214 243 173 267 268 259 255 266 270
270 273 275 277 278 279 280 280 280 281 281 281 281 281 280 280 275 263 268 269 270 258 276 250 254 263 247 243 240 248 250 234 232 220 254 242 249 152 252 262 244 250 239 243 260 253 264 265 265 276 277 283 294 290
272 277 283 283 282 282 282 283 282 283 283 282 280 279 278 279 280 272 263 259 238 261 259 275 274 258 257 249 234 218 235 246 257 253 236 241 248 199 242 248 243 234 231 244 258 269 273 273 268 265 257 285 288 278
292 290 287 283 285 287 283 283 281 280 281 282 281 280 279 279 281 283 271 255 236 215 252 282 298 280 267 258 248 228 226 233 236 234 224 243 231 230 242 245 251 222 239 238 252 256 246 275 276 264 271 264 277 274
294 296 298 302 301 295 288 288 286 287 280 278 278 278 278 276 279 298 306 268 234 216 247 265 262 265 267 241 233 237 224 230 230 217 225 222 236 199 247 254 254 240 239 241 251 261 258 263 270 273 265 266 284 276
292 296 295 294 302 297 292 292 294 285 281 280 279 278 276 274 258 210 226 170 5 184 254 294 288 264 250 154 328 313 204 204 211 221 223 242 228 209 242 262 279 267 256 265 259 250 277 268 261 261 266 250 288 298
293 293 296 294 299 298 294 295 293 292 289 282 280 281 280 276 271 256 249 247 253 292 289 259 264 333 161 249 274 213 259 197 212 239 228 224 207 211 251 262 279 268 261 260 260 254 243 261 270 268 266 273 316 296
291 293 295 293 299 298 298 297 297 294 293 290 283 286 290 243 226 243 270 261 226 196 216 233 195 261 88 235 219 280 204 234 226 230 211 201 212 225 245 265 258 265 249 262 263 254 244 251 272 283 276 269 292 295
289 293 291 291 294 296 298 300 301 303 302 299 292 211 224 210 226 289 199 210 156 201 239 248 184 250 141 197 268 290 204 231 245 223 149 217 253 257 315 353 347 340 335 333 300 291 307 297 286 279 289 293 292 280
288 289 289 290 289 289 292 298 302 315 311 275 261 266 317 320 268 204 226 203 198 249 221 232 210 237 244 166 223 222 302 238 248 242 194 212 259 183 17 349 327 333 332 329 327 306 295 279 278 276 213 180 345 136
285 287 287 288 288 286 285 290 293 294 279 298 309 303 286 308 253 211 223 217 197 226 208 181 212 186 233 132 187 273 254 247 249 209 235 257 282 359 347 338 328 334 337 329 329 315 325 337 355 9 28 67 62 91
281 282 284 284 282 282 284 287 286 282 270 278 196 247 214 235 215 220 213 213 214 219 189 192 207 149 81 90 197 230 254 238 310 246 244 220 34 3 331 309 330 346 348 353 346 345 11 27 43 37 73 45 92 88
287 283 283 281 279 278 282 286 291 233 198 223 223 228 214 212 227 209 213 200 240 205 179 166 117 176 163 174 203 242 248 339 299 283 291 1 301 323 359 19 356 346 355 2 11 6 26 32 54 50 49 56 94 96
282 284 284 283 283 282 286 236 290 209 225 236 223 234 220 226 259 239 235 308 267 195 146 71 22 138 187 180 201 261 282 255 232 229 212 209 220 138 10 21 340 4 20 8 26 36 35 41 57 59 50 63 80 92
276 295 283 323 277 214 241 260 242 206 251 232 234 264 276 96 268 330 344 278 289 260 99 58 184 156 222 204 173 213 225 236 248 230 239 137 159 168 92 140 95 40 28 26 27 30 35 41 57 64 60 56 59 81
284 241 272 293 280 280 292 249 202 218 233 237 243 220 250 276 237 251 203 249 244 80 246 181 204 213 165 217 209 191 210 223 218 247 204 184 184 180 187 174 146 142 91 56 40 45 44 42 55 63 61 53 75 84
264 264 277 271 279 298 266 207 224 231 242 240 239 254 243 208 232 287 280 253 221 224 190 236 244 228 217 201 217 233 209 240 203 181 193 171 150 157 174 168 137 136 118 112 112 64 60 53 50 47 55 64 69 71
269 268 264 261 249 226 255 231 215 254 235 235 243 231 222 239 244 247 249 261 252 240 185 260 229 223 230 214 217 233 211 190 190 200 185 170 162 164 154 149 137 129 135 145 129 101 92 98 102 103 89 77 66 73
264 263 265 259 238 203 236 247 209 248 251 244 250 253 231 222 260 241 264 263 267 252 222 215 224 230 211 230 205 211 196 160 141 133 209 204 158 150 157 157 168 147 127 100 94 106 96 84 96 129 137 129 114 105
273 263 256 241 247 215 253 265 259 251 285 283 282 300 261 259 258 263 268 269 207 220 255 238 247 249 236 231 202 163 154 163 182 176 172 166 167 149 149 147 144 138 136 133 126 120 112 104 123 132 128 119 121 127
255 258 243 228 227 222 229 213 229 240 260 263 279 276 273 255 276 260 237 212 230 255 250 232 241 240 252 242 204 189 172 180 157 130 120 125 148 147 153 149 138 148 150 155 136 132 124 133 132 131 126 124 129 122
252 230 203 199 214 229 251 191 206 191 227 240 223 233 257 257 233 218 249 233 235 229 279 269 267 249 239 237 213 158 169 163 164 158 155 156 146 142 135 145 151 143 137 129 154 138 139 144 143 133 133 132 124 119
210 184 191 207 199 240 259 228 213 207 208 225 245 256 259 266 231 216 236 239 346 324 337 348 323 267 249 215 175 176 173 160 147 137 150 140 139 138 144 149 161 164 159 151 146 136 142 142 146 148 135 125 133 129
75 216 206 197 221 198 251 272 234 223 236 252 269 261 265 183 212 235 243 6 331 328 328 335 326 295 236 211 182 151 149 152 156 157 169 143 125 120 110 124 138 160 162 137 127 132 137 147 148 154 155 143 130 130
218 249 206 200 181 192 211 203 221 221 245 252 247 280 283 170 176 23 14 318 313 309 320 314 315 303 270 171 149 147 153 161 153 146 144 150 144 139 144 144 146 114 178 173 159 144 149 155 156 157 157 165 164 157
227 261 247 282 238 228 321 269 264 124 294 336 337 305 356 37 51 0 302 337 319 322 317 329 324 281 173 109 105 119 151 165 168 136 141 149 151 156 155 155 161 167 167 175 166 169 166 166 163 171 167 170 176 176
284 107 246 287 331 237 193 263 124 145 288 320 354 36 79 23 344 321 313 340 342 341 352 3 350 27 37 30 76 114 115 117 114 110 101 94 114 132 141 140 141 149 150 158 168 178 181 179 180 182 185 186 188 195
225 281 73 312 301 325 75 228 160 239 208 95 110 42 83 49 325 309 335 355 1 9 10 4 356 30 38 37 45 48 58 137 138 125 117 124 109 80 128 133 133 134 138 138 141 152 172 193 202 201 201 202 205 203
300 309 9 348 108 337 275 159 213 254 49 123 114 91 70 17 16 19 20 19 15 12 12 14 17 32 35 27 31 45 33 33 88 128 139 136 126 128 127 125 124 126 131 132 135 136 148 156 137 157 187 198 205 204
276 293 353 6 17 282 243 257 1 58 47 55 58 104 162 174 10 29 19 14 19 20 23 22 26 29 34 32 28 33 39 30 54 80 96 109 119 118 114 114 120 130 143 154 163 170 168 173 190 193 190 196 201 209
300 251 128 6 304 292 21 69 246 107 86 67 13 41 23 59 47 347 9 18 20 22 13 19 37 37 45 54 59 63 64 59 64 76 86 94 97 100 105 117 130 149 162 167 174 182 186 182 163 173 183 195 193 194
281 20 30 39 3 355 316 46 61 79 44 69 67 86 97 120 71 289 27 27 38 26 19 42 59 66 66 65 66 66 68 68 69 73 78 89 94 101 111 121 133 152 177 186 186 187 195 183 130 126 123 111 108 105